When you browse on this site, cookies collect data to enhance your experience and personalize the content and advertising you see.
Visit our Privacy Policy to learn more. By continuing to use the site, you agree to this use of cookies and data.
  • In United Kingdom
  • List of Countries
  • For 7 days
  • Water Temperature
  • Satellite Maps
  • Weather Map
  • Weather Widgets
  • user-avatar
    Login

    Hourly Weather Tatabanya

    Today, 19 January, Saturday

    Time Temperature Precipitation Wind Pressure Humidity
    00:00 -3°C° 0 mm 2 mps 744 mmHg 76%
    01:00 -3°C° 0 mm 2 mps 744 mmHg 77%
    02:00 -3°C° 0 mm 2 mps 744 mmHg 78%
    03:00 -1°C° 0 mm 1 mps 744 mmHg 78%
    04:00 -1°C° 0 mm 1 mps 744 mmHg 79%
    05:00 -1°C° 0 mm 1 mps 744 mmHg 79%
    06:00 -1°C° 0 mm 1 mps 745 mmHg 80%
    07:00 -1°C° 0 mm 1 mps 745 mmHg 80%
    08:00 -2°C° 0 mm 2 mps 745 mmHg 76%
    09:00 -1°C° 0 mm 2 mps 745 mmHg 72%
    10:00 -1°C° 0 mm 3 mps 745 mmHg 67%
    11:00 0°C° 0 mm 3 mps 745 mmHg 63%
    12:00 0°C° 0 mm 3 mps 744 mmHg 59%
    13:00 +1°C° 0 mm 3 mps 744 mmHg 55%
    14:00 0°C° 0 mm 3 mps 744 mmHg 57%
    15:00 0°C° 0 mm 3 mps 744 mmHg 59%
    16:00 -1°C° 0 mm 2 mps 743 mmHg 61%
    17:00 -1°C° 0 mm 2 mps 743 mmHg 63%
    18:00 -1°C° 0 mm 2 mps 743 mmHg 65%
    19:00 -2°C° 0 mm 2 mps 743 mmHg 66%
    20:00 -2°C° 0 mm 2 mps 743 mmHg 66%
    21:00 -2°C° 0 mm 2 mps 743 mmHg 66%
    22:00 -2°C° 0 mm 2 mps 743 mmHg 67%
    23:00 -2°C° 0.1 mm 2 mps 742 mmHg 67%

    Tomorrow, 20 January, Sunday

    Time Temperature Precipitation Wind Pressure Humidity
    00:00 -2°C° 0.1 mm 2 mps 742 mmHg 68%
    01:00 -2°C° 0.1 mm 2 mps 742 mmHg 69%
    02:00 -2°C° 0.2 mm 2 mps 741 mmHg 74%
    03:00 -3°C° 0.2 mm 2 mps 741 mmHg 78%
    04:00 -3°C° 0.2 mm 2 mps 741 mmHg 82%
    05:00 -3°C° 0.3 mm 2 mps 740 mmHg 84%
    06:00 -3°C° 0.3 mm 2 mps 740 mmHg 87%
    07:00 -3°C° 0.3 mm 2 mps 740 mmHg 89%
    08:00 -3°C° 0.3 mm 2 mps 740 mmHg 89%
    09:00 0°C° 0.3 mm 1 mps 740 mmHg 89%
    10:00 0°C° 0.3 mm 1 mps 741 mmHg 89%
    11:00 0°C° 0.1 mm 1 mps 740 mmHg 87%
    12:00 +1°C° 0.1 mm 1 mps 740 mmHg 86%
    13:00 -1°C° 0.1 mm 2 mps 740 mmHg 85%
    14:00 -1°C° 0 mm 2 mps 740 mmHg 85%
    15:00 -1°C° 0 mm 2 mps 740 mmHg 85%
    16:00 -1°C° 0 mm 2 mps 740 mmHg 86%
    17:00 -2°C° 0 mm 2 mps 740 mmHg 87%
    18:00 -3°C° 0 mm 2 mps 741 mmHg 88%
    19:00 -3°C° 0 mm 2 mps 741 mmHg 90%
    20:00 -4°C° 0 mm 2 mps 741 mmHg 89%
    21:00 -4°C° 0 mm 2 mps 742 mmHg 88%
    22:00 -4°C° 0 mm 2 mps 742 mmHg 88%
    23:00 -4°C° 0 mm 2 mps 743 mmHg 87%

    Day after tomorrow, 21 January, Monday

    Time Temperature Precipitation Wind Pressure Humidity
    00:00 -4°C° 0 mm 2 mps 743 mmHg 85%
    01:00 -4°C° 0 mm 2 mps 743 mmHg 84%
    02:00 -4°C° 0 mm 2 mps 743 mmHg 84%
    03:00 -3°C° 0 mm 1 mps 743 mmHg 83%
    04:00 -3°C° 0 mm 1 mps 743 mmHg 82%
    05:00 -3°C° 0 mm 1 mps 744 mmHg 82%
    06:00 -3°C° 0 mm 1 mps 744 mmHg 82%
    07:00 -3°C° 0 mm 1 mps 744 mmHg 82%
    08:00 -2°C° 0 mm 1 mps 744 mmHg 80%
    09:00 -1°C° 0 mm 1 mps 745 mmHg 77%
    10:00 0°C° 0 mm 1 mps 745 mmHg 74%
    11:00 0°C° 0 mm 1 mps 745 mmHg 72%
    12:00 +1°C° 0 mm 1 mps 745 mmHg 69%
    13:00 +2°C° 0 mm 1 mps 745 mmHg 67%
    14:00 +1°C° 0 mm 1 mps 745 mmHg 69%
    15:00 +1°C° 0 mm 1 mps 745 mmHg 72%
    16:00 0°C° 0 mm 1 mps 745 mmHg 75%
    17:00 -1°C° 0 mm 1 mps 745 mmHg 77%
    18:00 -1°C° 0 mm 1 mps 745 mmHg 79%
    19:00 -2°C° 0 mm 1 mps 745 mmHg 81%
    20:00 -3°C° 0 mm 0 mps 745 mmHg 81%
    21:00 -3°C° 0 mm 0 mps 745 mmHg 81%
    22:00 -3°C° 0 mm 0 mps 745 mmHg 81%
    23:00 -3°C° 0 mm 0 mps 745 mmHg 81%

    22 January, Tuesday

    Time Temperature Precipitation Wind Pressure Humidity
    00:00 -3°C° 0 mm 0 mps 745 mmHg 80%
    01:00 -3°C° 0 mm 0 mps 744 mmHg 80%
    02:00 -3°C° 0 mm 0 mps 744 mmHg 80%
    03:00 -3°C° 0 mm 0 mps 744 mmHg 81%
    04:00 -4°C° 0 mm 0 mps 743 mmHg 81%
    05:00 -4°C° 0 mm 0 mps 743 mmHg 81%
    06:00 -4°C° 0 mm 0 mps 743 mmHg 82%
    07:00 -3°C° 0 mm 1 mps 742 mmHg 82%
    08:00 -2°C° 0 mm 1 mps 742 mmHg 79%
    09:00 -2°C° 0 mm 1 mps 742 mmHg 76%
    10:00 -1°C° 0 mm 1 mps 741 mmHg 73%
    11:00 -2°C° 0 mm 2 mps 741 mmHg 72%
    12:00 -2°C° 0 mm 2 mps 740 mmHg 72%
    13:00 -2°C° 0 mm 2 mps 739 mmHg 71%
    14:00 -2°C° 0 mm 3 mps 739 mmHg 74%
    15:00 -2°C° 0 mm 3 mps 738 mmHg 76%
    16:00 -4°C° 0 mm 3 mps 737 mmHg 79%
    17:00 -4°C° 0 mm 3 mps 736 mmHg 80%
    18:00 -4°C° 0 mm 3 mps 736 mmHg 81%
    19:00 -4°C° 0 mm 3 mps 735 mmHg 83%
    20:00 -4°C° 0.2 mm 3 mps 735 mmHg 85%
    21:00 -4°C° 0.2 mm 3 mps 734 mmHg 87%
    22:00 -4°C° 0.2 mm 3 mps 733 mmHg 89%
    23:00 -4°C° 0.2 mm 3 mps 733 mmHg 90%

    23 January, Wednesday

    Time Temperature Precipitation Wind Pressure Humidity
    00:00 -4°C° 0.2 mm 3 mps 732 mmHg 90%
    01:00 -4°C° 0.2 mm 3 mps 731 mmHg 91%
    02:00 -3°C° 0.2 mm 2 mps 730 mmHg 92%
    03:00 -3°C° 0.2 mm 2 mps 729 mmHg 92%
    04:00 -3°C° 0.2 mm 2 mps 729 mmHg 93%
    05:00 -3°C° 0.1 mm 2 mps 728 mmHg 93%
    06:00 -3°C° 0.1 mm 2 mps 728 mmHg 93%
    07:00 -3°C° 0.1 mm 2 mps 727 mmHg 94%
    08:00 -3°C° 0.1 mm 2 mps 727 mmHg 92%
    09:00 -2°C° 0.1 mm 2 mps 727 mmHg 91%
    10:00 -2°C° 0.1 mm 2 mps 727 mmHg 90%
    11:00 0°C° 0 mm 1 mps 727 mmHg 89%
    12:00 +1°C° 0 mm 1 mps 726 mmHg 89%
    13:00 +1°C° 0 mm 1 mps 726 mmHg 88%
    14:00 +1°C° 0 mm 1 mps 726 mmHg 89%
    15:00 -1°C° 0 mm 2 mps 725 mmHg 91%
    16:00 -1°C° 0 mm 2 mps 725 mmHg 92%
    17:00 -1°C° 0 mm 2 mps 725 mmHg 93%
    18:00 -1°C° 0 mm 2 mps 725 mmHg 94%
    19:00 +1°C° 0 mm 1 mps 725 mmHg 95%
    20:00 -1°C° 0 mm 2 mps 725 mmHg 95%
    21:00 -2°C° 0 mm 3 mps 725 mmHg 96%
    22:00 -2°C° 0 mm 3 mps 724 mmHg 96%
    23:00 -2°C° 0 mm 4 mps 724 mmHg 95%

    24 January, Thursday

    Time Temperature Precipitation Wind Pressure Humidity
    00:00 -2°C° 0 mm 5 mps 724 mmHg 95%
    01:00 -2°C° 0 mm 5 mps 724 mmHg 94%
    02:00 -2°C° 0 mm 5 mps 724 mmHg 94%
    03:00 -2°C° 0 mm 4 mps 723 mmHg 94%
    04:00 -2°C° 0 mm 4 mps 723 mmHg 94%
    05:00 -2°C° 0 mm 4 mps 723 mmHg 94%
    06:00 -2°C° 0 mm 4 mps 724 mmHg 93%
    07:00 -2°C° 0 mm 4 mps 724 mmHg 93%
    08:00 -1°C° 0.1 mm 4 mps 724 mmHg 92%
    09:00 -1°C° 0.1 mm 5 mps 724 mmHg 90%
    10:00 -1°C° 0.1 mm 5 mps 724 mmHg 89%
    11:00 0°C° 0.1 mm 5 mps 724 mmHg 86%
    12:00 +1°C° 0.1 mm 5 mps 723 mmHg 83%
    13:00 +2°C° 0.1 mm 5 mps 723 mmHg 81%
    14:00 +1°C° 0 mm 5 mps 723 mmHg 82%
    15:00 +1°C° 0 mm 5 mps 722 mmHg 84%
    16:00 0°C° 0 mm 5 mps 722 mmHg 86%
    17:00 0°C° 0 mm 5 mps 722 mmHg 87%
    18:00 0°C° 0 mm 4 mps 722 mmHg 88%
    19:00 -1°C° 0 mm 4 mps 722 mmHg 89%
    20:00 0°C° 0.1 mm 3 mps 722 mmHg 90%
    21:00 0°C° 0.1 mm 3 mps 722 mmHg 90%
    22:00 0°C° 0.1 mm 3 mps 722 mmHg 90%
    23:00 -1°C° 0.9 mm 4 mps 721 mmHg 90%
    Show more